Regional Weather Roundup
Issued by NWS Albany, NY

Home | Current Version | Previous Version | Graphics & Text | Print | Product List | Glossary On
Versions: 1 2 3 4 5 6 7 8 9 10 11 12 13 14 15 16 17 18 19 20 21 22 23 24 25 26 27 28 29 30 31 32 33 34 35 36 37 38 39 40 41 42 43 44 45 46 47 48 49 50
000
ASUS41 KALY 250010
RWRALY

NEW YORK STATE HOURLY WEATHER ROUNDUP
NATIONAL WEATHER SERVICE ALBANY NY
800 PM EDT MON APR 24 2017

NOTE: "FAIR" INDICATES FEW OR NO CLOUDS BELOW 12,000 FEET WITH NO
SIGNIFICANT WEATHER AND/OR NO OBSTRUCTIONS TO VISIBILITY.

NYZ032-033-038>043-046>054-057>066-NYZ062>081-082-084-250100-
EAST


CITY           SKY/WX    TMP DP  RH WIND       PRES   REMARKS
ALBANY         CLOUDY    61  39  44 NE10      30.11R
GLENS FALLS    CLEAR     52  35  52 N5        30.16R
POUGHKEEPSIE   CLOUDY    63  33  32 SE5       30.11S
NEWBURGH       MOCLDY    61  41  48 VRB6      30.14R
MONTGOMERY     CLOUDY    62  34  35 SE8       30.11S
WHITE PLAINS   CLOUDY    53  42  66 E8        30.13F
ISLIP          CLOUDY    53  40  61 E7        30.14F
NEW YORK CITY  CLOUDY    55  44  66 NE8       30.12F
CENTRAL PARK   CLOUDY    56  43  61 SE7       30.15F
$$

NYZ005>009-017-018-044>046-055-056-250100-
CENTRAL


CITY           SKY/WX    TMP DP  RH WIND       PRES   REMARKS
FULTON         CLEAR     57  38  48 N12       30.07F
SYRACUSE       CLOUDY    61  41  47 NW8       30.05S
ROME           CLEAR     63  40  42 NE9       30.06S
ELMIRA         CLOUDY    62  43  49 E7        30.05R
BINGHAMTON     PTCLDY    61  29  29 S10       30.07R
MONTICELLO     CLOUDY    57  36  44 SE5       30.13S
$$

NYZ026>034-041>043-087-250100-
NORTH


CITY           SKY/WX    TMP DP  RH WIND       PRES   REMARKS
WATERTOWN      CLEAR     52  34  50 NE14      30.13F
FORT DRUM      NOT AVBL
OGDENSBURG     FAIR      48  29  49 NE9       30.19F
MASSENA        CLOUDY    46  26  45 NE9       30.23S
SARANAC LAKE   CLEAR     46  31  55 NE8       30.16R
PLATTSBURGH    CLEAR     43  25  49 NW8       30.24S
$$

NYZ001>004-010>016-019>021-085-250100-
WEST


CITY           SKY/WX    TMP DP  RH WIND       PRES   REMARKS
NIAGARA FALLS  CLEAR     53  35  50 NE14      30.03S
BUFFALO        CLOUDY    53  36  52 NE15      30.03R
DUNKIRK        CLEAR     54  42  64 NE15      29.97R
JAMESTOWN      CLEAR     64  23  20 S12G17    29.99R
WELLSVILLE     CLOUDY    62  24  23 SE10      30.05R
ROCHESTER      MOCLDY    51  35  54 E14       30.09S
PENN YAN       PTCLDY    57  40  52 CALM      30.07R
$$

             KEY
       WCI = WIND CHILL INDEX
       VSB = VISIBILITY
       HX  = HEAT INDEX
$$



USA.gov is the U.S. government's official web portal to all federal, state and local government web resources and services.